Location: Caltech
(34.1382°N, 118.1253°W)
Time: 19:29:43
(UTC-07:00)

Iridium 65 - Visible Passes

Search period start: 06 July 2015 00:00
Search period end: 16 July 2015 00:00
Orbit: 776 x 779 km, 86.4° (Epoch: 06 July)

Date Brightness Start Highest point End Pass type
(mag) Time Alt. Az. Time Alt. Az. Time Alt. Az.
06 Jul 5.5 04:29:38 10° N 04:34:52 84° W 04:40:05 10° S visible
07 Jul 6.3 03:56:16 10° N 04:01:19 50° E 04:06:22 10° SSE visible
08 Jul 7.5 03:23:21 10° NNE 03:27:36 26° E 03:31:57 10° SE visible
08 Jul 6.5 05:03:52 10° NNW 05:08:20 29° W 05:12:41 10° SW visible
09 Jul 8.1 02:51:23 10° NE 02:53:43 13° ENE 02:56:20 10° ESE visible
09 Jul 5.6 04:29:49 10° NNW 04:34:55 56° W 04:39:47 11° SSW visible
10 Jul 5.6 03:56:14 10° N 04:01:27 75° E 04:05:45 15° S visible
11 Jul 6.8 03:23:00 10° NNE 03:27:50 38° E 03:31:45 15° SSE visible
11 Jul 7.0 05:04:35 10° NW 05:08:19 19° W 05:11:51 10° SW visible
12 Jul 7.7 02:50:22 10° NNE 02:54:03 20° ENE 02:57:47 11° SE visible
12 Jul 6.1 04:30:10 10° NNW 04:34:57 37° W 04:38:13 18° SW visible
13 Jul 5.4 03:56:19 10° N 04:01:32 73° W 04:04:16 28° S visible
14 Jul 6.0 03:22:52 10° N 03:28:00 57° E 03:30:22 31° SSE visible
14 Jul 7.4 05:05:51 10° NW 05:08:17 13° W 05:10:22 10° WSW visible
15 Jul 7.1 02:49:50 10° NNE 02:54:19 29° E 02:56:29 22° ESE visible
15 Jul 6.7 04:30:42 10° NNW 04:34:58 25° W 04:36:55 20° WSW visible
